Location: ????????
(38.4362°N, 22.8767°E)
Time: 04:33:50
(UTC+00:00)

Cosmos 2344 - Pass Details

Date: 23 April 2024
Orbit: 1209 x 3033 km, 63.3° (Epoch: 23 May)

Event Time Altitude Azimuth Distance (km) Brightness Sun altitude
Rises 00:22:53 0° 325° (NW) 4,472 6.7 -32.2°
Reaches altitude 10° 00:25:26 10° 324° (NW) 3,630 6.1 -31.9°
Maximum altitude 00:34:28 79° 240° (WSW) 1,870 4.2 -30.9°
Drops below altitude 10° 00:47:19 10° 156° (SSE) 5,013 6.4 -29.3°
Sets 00:51:31 0° 155° (SSE) 6,256 7.0 -28.7°
